Air Resources Laboratory banner image
Air Resources Laboratory web site National Oceanic and Atmospheric Administration (NOAA)

nv roundup


Office: REV

ASUS45 KREV 160910
RWRNV
NEVADA REGIONAL WEATHER ROUNDUP
NATIONAL WEATHER SERVICE RENO NV
200 AM PDT TUE AUG 16 2022

NOTE: "FAIR" INDICATES FEW OR NO CLOUDS BELOW 12,000 FEET WITH NO
SIGNIFICANT WEATHER AND/OR OBSTRUCTIONS TO VISIBILITY.

NVZ001-003-004-161000-
WESTERN NEVADA

CITY           SKY/WX    TMP DP  RH WIND       PRES   REMARKS
RENO           PTCLDY    72  33  24 VRB3      30.06F
CARSON CITY    FAIR      63  34  34 CALM      30.09F
MINDEN         FAIR      54  36  50 E6        30.08F
SLIDE MTN        N/A     61  28  29 NE12        N/A
PYRAMID LAKE     N/A     81 N/A N/A NW2         N/A
FALLON         CLOUDY    79  32  18 SW10      29.98S
LOVELOCK       PTCLDY    63  26  24 SW5       29.98S
HAWTHORNE      CLEAR     79  39  24 SW5       30.01S
$$

NVZ002-CAZ072-073-161000-
NORTHERN AND CENTRAL SIERRA

CITY           SKY/WX    TMP DP  RH WIND       PRES   REMARKS
S. LAKE TAHOE  CLEAR     50  34  54 SW3       30.21S
TRUCKEE        CLEAR     52  34  50 CALM      30.21S
BLUE CANYON    CLEAR     74  26  16 NE3       30.13F
SUSANVILLE     FAIR      63  30  29 W5        30.05S
MAMMOTH LAKES  FAIR      63  32  31 CALM      30.27F
BRIDGEPORT       N/A     52  39  62 W2          N/A
$$

NVZ030-031-036-161000-
NORTHERN NEVADA

CITY           SKY/WX    TMP DP  RH WIND       PRES   REMARKS
ELKO           CLEAR     63  38  39 CALM      30.11R
WINNEMUCCA     CLEAR     77  31  18 E8G21     30.01S
BATTLE MOUNTAI MOSUNNY   68  37  32 E3        30.05R
WENDOVER       CLEAR     74  49  41 CALM      30.04F
$$

NVZ035-037-161000-
CENTRAL NEVADA

CITY           SKY/WX    TMP DP  RH WIND       PRES   REMARKS
ELY            CLEAR     53  44  71 S9        30.21R
EUREKA           N/A     61  43  51 S8        30.16F
$$

NVZ013-014-161000-
SOUTH CENTRAL NEVADA

CITY           SKY/WX    TMP DP  RH WIND       PRES   REMARKS
TONOPAH        PTCLDY    68  54  60 N7        30.14S
$$

NVZ017-020-022-161000-
SOUTHERN NEVADA

CITY           SKY/WX    TMP DP  RH WIND       PRES   REMARKS
LAS VEGAS      CLOUDY    82  58  43 E6        29.87F
N. LAS VEGAS   CLOUDY    85  57  38 CALM      29.86F
NELLIS AFB     PTCLDY    84  54  34 E5        29.85F
HENDERSON      MOCLDY    82  56  40 SE5       29.91F
MERCURY        MOCLDY    83  49  30 N6        29.94F
$$




Office: LKN ASUS65 KLKN 160040 RTPLKN Regional Temperature And Precipitation Table...Late Afternoon National Weather Service Elko NV 540 PM PDT Mon Aug 15 2022 ***Automated Airport Stations*** Values represent lows over the last 18 hours... Values reflect the previous 18 hours and precipitation over the last 24 hours...ending at 4 PM PST/5 PM PDT today. .BR LKN 0815 P DH16/TAIRZS/TAIRZI/PPDRZZ/SFDRZZ/SDIRZZ : :ID Station Elev / Max / Min / Pcpn / :.................................................................... : EKO : Elko ASOS 5074 : 89 / 51 / 0.00 / ELY : Ely ASOS 6262 : 87 / 50 / 0.00 / P68 : Eureka ASOS 5936 : 89 / 53 / 0.00 / TPH : Tonopah ASOS 5395 : 92 / 64 / 0.00 / ENV : Wendover AWOS 4236 : 94 / 65 / 0.00 / WMC : Winnemucca ASOS 4314 : 100 / 46 / 0.00 / .END ***Manual synoptic reporting stations in north and central Nevada*** Values reflect the previous 24 hours ending at 4 PM PST/5 PM PDT *Snow stations may only report during periods of snowfall* .BR LKN 0815 P DH16/TAIRZX/TAIRZN/PPDRZZ/SFDRZZ/SDIRZZ : Snow Snow :ID Station Elev Max / Min / Pcpn / Fall / Dpth :.................................................................... : ZLKN2 : Elko NWS Office 5235 : 94 / 53 / 0.00 / 0.0 / 0 ZELN2 : Ely Snow 6487 : M / M / 0.00 / 0.0 / 0 ZWIN2 : Winnemucca Snow 4355 : M / M / 0.00 / 0.0 / 0 .END ***Cooperative stations in north and central Nevada*** Values reflect the previous 24 hours Report time as indicated .BR LKN 0815 P DH16/TAIRZX/TAIRZN/PPDRZZ/SFDRZZ/SDIRZZ : Snow Snow :ID Station Elev Time / Max / Min / Pcpn / Fall / Dpth :.................................................................... : ASTN2 : Austin #2 6780 5 PM: M / M / M / M / M B23 : Battle MT. 4SE 4505 5 PM: M / M / M / M / M BOWN2 : Beowawe 4700 4 PM: M / M / M / M / M PIVN2 : Pine Valley 5166 6 PM: M / M / M / M / M AWH : Wild Horse Res. 6239 6 PM: M / M / M / M / M .END M = Missing data T = Trace amounts ASOS = Automated Surface Observing System AWOS = Automated Weather Observation System NWS = National Weather Service These data are preliminary and have not undergone final quality control (QC) by NCEI. Therefore, these data are subject to revision. Final and certified data can be accessed at the National Centers For Environmental Information (NCEI) - www.ncei.noaa.gov $$